Find Starlink 5022

NORAD ID: 53903 Int'l Des: 2022-119 Owner: SPXS Country: US Constellation: starlink operational
LEOCIRCULAR

Live Position

Loading 3D Globe...

About Starlink 5022

Description loading...

Upcoming Passes

Passes for default location (London). Set your location on the main map for personalized predictions.

Altitude History

Loading altitude history...

Two-Line Element Set

1 53903U 22119T 26121.12761553 .00000232 00000-0 32696-4 0 9994
2 53903 53.2166 88.5227 0001498 69.5130 290.6022 15.08837971199608
Epoch: May 1, 2026 • Age: 9 hours

Current Status

Altitude 548.2 km
Velocity 7.59 km/s
Sub-Earth Point -27.51°S, 17.84°E
Launch Date Sep 24, 2022
Age 3.5 years
Type internet

Technical Details

Classification Payload
Mass 305.00 kg
Dry Mass 290.00 kg
Total Mass 305.00 kg
Length 0.20 m
Diameter 2.80 m
Span 9.00 m
Shape Box + pan
Manufacturer SPXS
Bus Type Starlink
Phase Status In Orbit
Owner/State SPXS/US

Most Searched